Temperature
9 8 8 7 7 7 7 7 7 7 7 7 7 7 7 7 7 7 7 7 7 8 8 8 8 8 8 8 7 7 7 7 7 7 7 8 8 8 8 8 8 8 8
8 7 7 7 7 7 7 7 7 7 7 7 7 6 6 6 7 7 7 7 7 7 7 7 7 7 7 7 7 7 7 7 6 6 6 6 7 7 7 7 7 7 7
7 7 6 6 6 6 6 6 6 6 6 6 6 6 6 6 6 6 6 6 6 6 6 6 6 6 6 6 6 6 6 6 6 5 5 5 5 6 6 7 7 7 7
6 6 6 5 5 6 6 6 6 6 6 6 5 5 5 5 5 5 5 5 5 6 6 6 6 6 6 6 6 6 6 5 5 5 5 5 5 5 5 5 6 6 6
6 5 5 5 5 5 5 5 5 5 5 5 5 5 4 4 4 4 4 5 5 5 5 5 5 5 5 5 5 5 5 5 5 4 4 4 4 4 4 4 5 5 5
5 5 5 4 4 4 5 5 5 5 4 4 4 4 4 4 4 4 4 4 4 4 4 5 5 5 5 5 5 4 4 4 4 4 4 4 4 4 4 4 4 4 4
5 5 4 4 4 4 4 4 4 4 4 4 4 3 3 3 3 3 3 3 4 4 4 4 4 4 4 4 4 4 4 3 3 3 3 3 3 3 3 3 3 3 4
5 4 4 3 3 3 3 3 3 3 3 3 3 3 3 3 3 3 3 3 3 3 3 3 4 4 4 3 3 3 3 3 3 3 3 3 3 3 3 3 3 3 3
4 4 3 3 3 3 3 3 3 3 3 3 3 3 3 2 2 3 3 3 3 3 3 3 3 3 3 3 3 3 3 3 3 3 3 3 3 2 3 2 2 2 2
4 3 3 3 2 2 2 2 2 2 2 2 2 2 2 2 2 2 2 2 2 2 2 2 2 2 2 2 2 2 2 2 2 2 2 2 2 2 2 2 2 2 2
3 3 3 2 2 2 2 2 2 2 2 2 2 2 2 2 2 2 2 2 2 2 2 2 2 2 2 2 2 2 2 2 2 2 2 2 2 2 2 2 2 2 2
3 3 2 2 2 2 1 1 2 1 1 1 1 1 1 1 1 1 1 1 1 1 1 1 1 1 1 1 1 1 1 1 1 1 1 1 1 1 1 1 1 1 1
3 2 2 2 1 1 1 1 1 1 1 1 1 1 1 1 1 1 1 1 1 1 1 1 1 1 1 1 1 1 1 1 1 1 1 1 1 0 0 0 1 1 1
3 2 2 1 1 1 1 0 0 0 0 0 0 0 0 0 0 0 0 0 0 0 0 0 0 0 0 0 0 0 0 0 0 0 0 0 0 -0 0 0 0 0 0
2 2 1 1 1 0 0 0 -0 -0 -0 -0 -0 -0 -0 -0 -0 -0 -0 -0 -0 -0 -0 -0 -0 -0 -0 -0 -0 -0 -0 -0 0 0 -0 -0 -0 -0 -0 -0 -0 -0 -0
1 1 1 0 0 0 -0 -0 -0 -0 -0 -0 -1 -1 -1 -1 -1 -1 -1 -1 -1 -1 -1 -1 -1 -1 -1 -1 -1 -1 -0 -1 -0 -0 -0 -1 -1 -1 -1 -1 -1 -0 -1
1 1 0 0 -0 -0 -1 -1 -1 -1 -1 -1 -1 -1 -1 -1 -1 -1 -1 -1 -1 -1 -1 -2 -1 -1 -1 -1 -1 -1 -1 -1 -1 -1 -1 -1 -1 -1 -1 -1 -1 -1 -1
1 0 0 -0 -0 -1 -1 -1 -1 -1 -1 -1 -1 -1 -2 -2 -2 -2 -2 -2 -2 -2 -2 -2 -2 -2 -2 -2 -2 -2 -2 -1 -1 -1 -1 -1 -2 -2 -2 -2 -1 -1 -1
0 0 -0 -0 -1 -1 -1 -1 -1 -1 -2 -2 -2 -2 -2 -2 -2 -2 -2 -2 -3 -3 -3 -2 -2 -2 -2 -2 -2 -2 -2 -2 -2 -2 -2 -2 -2 -2 -2 -2 -2 -2 -2
0 -0 -0 -1 -1 -1 -1 -1 -2 -2 -2 -2 -2 -2 -2 -2 -2 -3 -3 -3 -3 -3 -3 -3 -3 -3 -3 -3 -3 -3 -3 -3 -3 -3 -2 -2 -2 -2 -2 -2 -2 -2 -2
-0 -1 -1 -1 -1 -2 -2 -2 -2 -2 -2 -2 -2 -3 -3 -3 -3 -3 -3 -3 -3 -3 -3 -3 -4 -4 -4 -4 -3 -3 -3 -3 -3 -3 -3 -3 -3 -2 -2 -2 -2 -2 -2
-1 -1 -1 -2 -2 -2 -2 -2 -2 -2 -3 -3 -3 -3 -3 -3 -3 -4 -4 -4 -4 -4 -4 -4 -4 -4 -4 -4 -4 -4 -4 -3 -3 -3 -3 -3 -3 -3 -3 -3 -3 -3 -2
-1 -2 -2 -2 -2 -2 -2 -3 -2 -3 -3 -3 -3 -3 -3 -3 -4 -4 -4 -4 -4 -4 -4 -4 -4 -4 -4 -4 -4 -4 -4 -4 -4 -3 -3 -3 -3 -3 -3 -3 -3 -3 -3
-2 -2 -2 -2 -2 -3 -3 -3 -3 -3 -3 -3 -3 -3 -4 -4 -4 -4 -4 -4 -4 -4 -4 -5 -5 -4 -4 -4 -4 -4 -4 -4 -4 -3 -3 -3 -3 -3 -3 -3 -3 -3 -3
-2 -2 -2 -3 -3 -3 -3 -3 -3 -3 -3 -3 -4 -4 -4 -4 -4 -4 -4 -4 -4 -5 -5 -5 -5 -5 -5 -5 -5 -5 -4 -4 -4 -4 -3 -3 -3 -3 -3 -3 -3 -3 -3
-2 -2 -3 -3 -3 -3 -3 -3 -4 -4 -4 -4 -4 -4 -4 -4 -5 -5 -5 -5 -5 -5 -5 -5 -5 -5 -5 -5 -5 -5 -4 -4 -4 -4 -4 -4 -4 -4 -4 -4 -4 -4 -4
Wind_Speed
1 2 2 3 3 2 2 1 1 1 1 0 0 0 1 1 1 1 1 1 1 1 1 1 1 1 1 2 2 2 2 2 2 3 4 5 5 5 4 4 4 4 4
1 2 2 2 2 1 1 1 1 0 0 0 1 1 1 1 2 1 1 1 1 2 2 1 1 1 1 2 2 1 1 2 1 1 2 3 3 3 4 3 3 4 3
1 1 2 1 1 1 1 1 1 0 1 1 0 1 1 1 1 1 1 2 2 2 2 2 2 2 2 2 2 2 2 2 2 2 1 1 3 3 3 4 3 3 3
1 1 1 0 0 0 0 1 1 1 1 1 0 1 1 2 2 2 2 2 3 2 2 2 3 2 2 2 3 2 2 2 3 3 3 3 2 2 3 3 2 3 3
1 1 1 1 1 1 0 0 1 1 0 0 1 1 2 2 2 2 2 2 2 2 2 3 3 3 2 2 2 3 3 3 3 3 3 4 4 4 4 5 4 4 3
1 1 1 1 1 1 0 0 1 1 1 1 1 2 2 2 2 2 2 2 2 2 3 3 3 3 2 3 3 3 4 3 3 3 3 3 3 3 3 5 5 5 4
1 1 1 1 1 1 0 0 0 1 1 1 1 2 2 3 3 3 2 2 2 2 3 3 3 3 3 3 3 3 3 3 3 3 3 3 4 3 4 5 5 6 5
1 1 1 1 1 1 1 1 1 1 1 1 2 2 2 2 2 3 2 2 2 3 3 3 3 3 3 3 3 3 3 3 3 4 4 3 4 3 4 4 4 5 5
1 2 2 2 2 1 1 1 1 1 1 1 1 2 2 2 2 2 2 2 2 3 3 3 3 3 3 3 3 3 3 3 3 4 4 4 3 4 4 4 4 4 6
0 1 2 2 2 1 1 1 1 1 1 1 1 2 1 1 2 2 2 2 3 3 3 4 3 3 3 3 3 3 3 3 3 3 4 4 4 4 3 4 4 4 5
1 0 1 1 1 1 1 1 1 1 1 1 1 1 1 2 2 2 3 3 3 3 3 4 4 3 3 3 3 3 3 3 3 4 4 4 4 4 3 3 4 4 4
1 1 0 1 2 2 1 1 1 1 1 1 1 1 2 2 2 2 3 2 3 3 3 3 3 4 3 3 3 4 3 3 4 4 4 4 4 4 4 4 4 4 4
1 0 1 1 1 2 2 2 1 1 1 1 1 2 2 2 2 3 3 2 3 3 3 3 3 4 4 3 3 3 4 4 4 4 4 4 4 4 4 4 4 4 4
0 0 0 0 1 2 2 2 3 2 2 1 2 2 2 2 2 3 2 3 3 3 3 3 3 4 4 4 4 4 4 4 4 4 4 4 4 4 4 4 4 4 4
1 0 0 1 1 2 2 2 2 2 2 2 2 2 2 2 2 2 2 3 3 3 3 3 4 3 3 3 4 4 4 3 3 3 4 4 5 5 5 5 4 3 3
1 1 1 1 2 2 2 2 2 2 2 2 2 2 2 2 2 2 2 3 3 3 3 3 3 3 4 5 6 5 4 3 3 4 3 4 4 5 6 7 6 5 5
1 1 2 2 2 2 1 1 2 2 2 2 2 2 2 2 2 2 2 2 2 2 3 3 3 3 4 6 7 7 4 3 3 3 3 4 4 5 4 5 6 6 7
1 1 1 2 2 1 1 1 1 2 2 2 2 2 2 2 2 2 2 2 2 2 3 3 3 3 4 7 7 7 4 3 3 4 4 4 4 4 4 3 4 4 4
1 2 1 1 1 1 1 1 2 2 2 2 2 2 1 2 2 2 2 2 2 2 3 3 3 3 4 7 7 6 3 3 3 4 4 3 4 5 5 4 3 3 3
0 0 0 1 1 1 0 0 2 2 2 2 2 2 1 1 2 2 2 2 2 3 3 4 3 4 4 6 7 6 2 3 3 3 3 4 5 5 5 3 3 3 4
1 0 0 1 1 1 0 1 2 2 2 2 2 2 1 1 1 2 2 2 3 3 3 4 3 3 4 6 7 7 3 3 3 3 3 3 6 6 5 4 3 4 3
1 0 1 1 1 1 0 1 2 2 2 2 2 2 1 2 2 2 2 2 2 3 3 3 4 3 3 5 7 8 6 5 3 3 3 4 6 6 5 4 4 4 3
1 0 1 1 2 1 0 1 2 2 2 1 1 2 2 1 1 2 2 2 2 2 3 3 3 4 4 4 7 8 7 7 4 3 5 7 6 5 4 4 4 2 1
1 0 0 2 2 2 1 1 2 1 1 1 1 2 1 2 2 2 2 2 2 2 3 3 4 4 4 4 4 4 4 5 4 3 5 6 5 4 4 3 2 1 1
1 1 1 2 3 2 1 2 1 1 1 1 1 1 1 2 2 2 2 2 2 2 3 3 3 3 4 5 8 6 4 3 3 3 2 2 2 2 2 2 2 2 2
1 1 1 2 2 2 2 1 1 0 0 1 1 1 1 2 2 2 2 3 3 5 5 5 5 5 6 8 8 8 8 7 6 3 1 2 2 2 2 2 2 2 2
Wind_Direction
168 123 114 106 107 98 94 107 95 8 24 91 270 293 301 312 305 299 297 289 296 304 304 266 234 247 236 252 264 283 281 285 302 306 301 289 265 254 254 254 248 244 243
155 146 120 105 107 107 86 61 23 326 143 129 261 271 263 261 255 279 291 266 273 279 279 256 225 226 234 250 258 271 277 287 301 287 307 309 305 284 272 257 243 243 248
166 141 116 114 100 76 66 26 343 302 137 92 263 312 314 285 303 294 284 266 254 255 257 256 238 227 219 228 235 229 244 267 280 266 246 269 269 304 278 264 260 256 254
174 149 129 54 55 61 54 21 316 305 123 100 190 253 262 273 271 273 269 272 260 244 245 258 245 229 221 226 240 247 244 238 261 274 262 260 268 277 299 297 296 294 290
157 158 159 236 344 38 51 321 312 317 95 160 226 246 263 262 274 287 281 274 272 256 245 252 242 228 222 219 228 246 244 240 241 255 273 276 278 259 264 283 293 301 293
149 154 150 113 43 28 151 195 282 308 302 243 246 238 256 270 283 293 287 285 282 266 255 256 246 237 228 224 228 237 239 246 245 250 257 264 266 270 269 275 285 290 294
114 70 45 49 33 16 87 176 286 288 290 271 263 252 258 262 260 268 271 288 289 280 263 267 248 240 242 243 238 236 241 239 243 245 253 258 266 270 272 277 284 289 291
85 40 41 31 9 357 356 346 294 281 289 278 274 279 270 265 266 272 271 271 277 276 275 269 269 264 251 253 240 236 240 242 243 256 259 259 261 264 265 265 275 291 289
40 32 32 26 9 5 343 321 307 290 299 295 294 285 289 291 282 281 291 284 282 290 295 288 278 268 253 245 241 242 240 238 244 250 257 262 263 261 266 266 258 260 283
59 6 5 13 14 357 351 342 326 306 298 312 295 297 295 294 296 297 295 291 292 297 300 300 287 274 256 251 251 255 250 243 251 252 257 264 268 265 259 264 268 260 261
188 271 313 4 14 15 22 15 348 326 311 302 295 308 310 308 302 289 287 292 296 296 292 291 286 278 271 259 255 257 254 253 260 261 260 264 267 268 270 269 270 268 263
164 205 195 46 25 16 4 348 334 310 294 295 306 312 307 299 291 290 294 302 300 297 290 287 287 283 281 275 262 262 264 258 261 264 264 266 271 268 266 265 266 269 268
185 130 51 28 2 349 347 339 336 317 294 300 305 309 304 297 291 298 306 308 303 302 299 297 292 289 287 282 274 265 269 264 262 260 260 266 266 268 267 268 266 270 276
225 108 30 334 336 336 342 350 346 345 331 319 301 294 288 285 293 302 306 303 299 298 298 295 288 287 287 283 279 281 278 274 270 267 262 261 258 262 264 268 265 265 269
262 272 314 316 320 330 345 347 341 339 334 326 311 298 296 303 311 314 309 307 305 299 293 293 290 289 286 285 290 286 285 279 282 283 275 275 279 275 272 274 271 263 264
279 296 306 318 319 325 331 332 324 325 331 314 305 312 311 305 303 305 305 308 310 311 311 302 297 300 299 306 309 307 291 286 284 286 282 280 280 285 288 288 282 270 260
282 278 282 294 298 298 301 295 306 314 318 308 308 318 311 303 303 303 308 309 312 320 321 317 315 309 308 313 315 318 312 296 288 282 282 289 291 290 272 290 296 283 276
271 274 275 285 305 304 295 300 312 308 304 304 307 316 317 309 311 317 317 316 319 323 318 318 319 318 317 323 321 325 322 305 297 289 281 279 283 290 291 291 291 282 278
246 244 249 275 299 293 297 331 311 305 306 306 312 314 311 305 309 317 323 323 327 324 317 317 323 322 319 325 328 330 315 305 302 295 288 282 277 294 300 291 287 291 295
298 263 309 315 293 287 17 319 302 309 304 308 308 305 298 298 311 317 317 318 319 315 319 319 319 314 310 322 328 327 306 304 309 306 297 291 290 295 292 274 267 279 290
291 242 291 297 288 297 130 272 291 289 296 309 311 307 306 305 313 318 312 316 317 318 318 314 314 311 314 322 324 324 316 303 306 307 307 299 303 298 292 288 269 281 294
287 219 241 291 313 328 190 274 284 294 309 309 307 307 308 312 319 309 310 314 316 321 319 318 321 321 319 325 321 322 319 317 301 295 298 303 313 310 298 289 305 316 322
265 233 224 286 307 316 218 269 295 309 315 314 311 311 320 327 322 308 306 314 318 318 318 323 325 327 329 329 332 329 324 323 318 305 312 317 320 319 309 309 316 318 317
257 280 283 288 293 298 281 274 294 308 317 308 309 318 332 330 330 326 317 311 314 316 320 323 322 321 320 322 325 323 320 323 320 316 315 319 328 332 332 335 328 316 308
232 207 233 273 284 296 287 298 313 4 347 313 317 331 335 324 331 336 326 312 301 293 301 296 296 303 305 309 320 321 315 314 312 326 323 328 340 349 348 341 347 344 341
227 223 245 275 287 296 297 312 335 26 328 328 353 355 348 340 338 335 335 338 317 322 317 308 305 303 304 312 320 322 325 329 332 337 327 328 335 339 343 349 353 356 353
Height
1470 1471 1471 1471 1472 1472 1471 1472 1472 1472 1473 1473 1474 1474 1474 1474 1475 1475 1475 1476 1476 1476 1477 1477 1478 1478 1478 1478 1479 1479 1479 1479 1478 1478 1476 1476 1477 1476 1477 1477 1477 1478 1478
1467 1468 1469 1469 1469 1469 1469 1469 1469 1470 1470 1470 1471 1472 1472 1472 1472 1472 1472 1473 1473 1473 1473 1473 1474 1474 1474 1475 1475 1475 1475 1475 1475 1475 1473 1472 1472 1472 1473 1473 1473 1473 1473
1464 1465 1466 1466 1466 1466 1466 1466 1467 1467 1467 1467 1468 1468 1468 1468 1468 1469 1469 1469 1469 1469 1470 1470 1470 1470 1470 1471 1471 1471 1471 1471 1472 1473 1473 1472 1469 1468 1468 1468 1468 1469 1468
1463 1463 1463 1464 1463 1463 1463 1464 1464 1464 1463 1464 1464 1464 1464 1464 1465 1465 1465 1465 1466 1466 1466 1466 1466 1466 1466 1467 1467 1467 1468 1468 1468 1468 1469 1470 1468 1468 1463 1463 1464 1464 1464
1461 1461 1461 1461 1460 1460 1461 1461 1461 1461 1460 1460 1461 1461 1461 1461 1462 1462 1462 1462 1462 1462 1462 1462 1462 1462 1462 1463 1463 1463 1464 1464 1464 1464 1465 1465 1465 1464 1463 1459 1458 1459 1459
1459 1459 1459 1459 1458 1458 1458 1458 1458 1458 1457 1457 1457 1458 1458 1458 1458 1458 1458 1458 1458 1458 1459 1458 1458 1458 1458 1459 1459 1459 1459 1459 1460 1460 1460 1461 1461 1460 1459 1457 1454 1453 1453
1457 1457 1457 1456 1456 1455 1455 1455 1455 1455 1455 1454 1454 1454 1455 1455 1455 1455 1455 1455 1455 1455 1455 1454 1454 1454 1454 1455 1455 1455 1455 1455 1455 1455 1456 1456 1456 1456 1456 1454 1451 1449 1447
1456 1456 1455 1455 1454 1453 1453 1453 1453 1453 1452 1452 1452 1451 1452 1452 1451 1452 1452 1451 1451 1451 1451 1451 1451 1451 1451 1450 1450 1451 1451 1451 1451 1451 1451 1451 1451 1451 1451 1451 1449 1445 1443
1454 1454 1454 1453 1452 1452 1451 1450 1450 1450 1450 1449 1449 1448 1449 1448 1448 1448 1448 1448 1448 1448 1448 1448 1447 1447 1447 1446 1446 1446 1447 1447 1446 1446 1446 1446 1446 1446 1446 1446 1445 1444 1440
1453 1453 1452 1451 1450 1450 1449 1449 1448 1448 1448 1447 1446 1446 1446 1446 1445 1445 1445 1445 1445 1445 1444 1444 1444 1443 1443 1442 1442 1443 1442 1442 1442 1442 1441 1441 1441 1441 1441 1441 1440 1439 1438
1451 1451 1450 1450 1449 1448 1447 1447 1446 1446 1445 1445 1444 1443 1443 1442 1442 1442 1442 1441 1441 1441 1441 1440 1440 1439 1439 1438 1439 1438 1438 1438 1438 1437 1437 1436 1436 1436 1436 1436 1435 1434 1433
1449 1449 1449 1448 1447 1446 1445 1445 1444 1443 1443 1442 1441 1441 1440 1440 1439 1439 1439 1438 1438 1437 1437 1436 1436 1436 1435 1435 1435 1435 1434 1434 1433 1433 1432 1432 1432 1431 1431 1430 1430 1429 1429
1448 1448 1447 1446 1445 1445 1444 1443 1442 1441 1440 1439 1439 1438 1437 1437 1436 1436 1435 1435 1434 1434 1433 1433 1432 1432 1431 1431 1431 1431 1430 1430 1429 1429 1428 1428 1428 1427 1426 1426 1425 1425 1424
1447 1446 1445 1445 1444 1443 1442 1441 1440 1439 1438 1437 1436 1435 1435 1434 1433 1433 1432 1432 1431 1430 1430 1429 1429 1428 1428 1428 1428 1427 1427 1426 1425 1425 1425 1424 1424 1423 1422 1422 1421 1420 1420
1445 1445 1444 1443 1442 1441 1440 1439 1437 1436 1435 1434 1433 1432 1432 1431 1430 1430 1429 1429 1428 1427 1427 1426 1425 1425 1424 1424 1424 1423 1423 1422 1421 1421 1421 1420 1420 1419 1419 1418 1417 1417 1416
1443 1443 1442 1441 1440 1439 1437 1436 1435 1434 1433 1432 1431 1430 1429 1428 1428 1427 1427 1426 1425 1424 1424 1423 1422 1421 1421 1421 1421 1420 1419 1418 1418 1417 1416 1416 1416 1415 1415 1414 1414 1413 1413
1441 1440 1439 1438 1437 1436 1435 1433 1432 1431 1430 1429 1428 1427 1426 1426 1425 1425 1424 1423 1422 1422 1421 1420 1419 1418 1417 1417 1417 1417 1416 1415 1414 1413 1413 1412 1412 1411 1411 1410 1409 1409 1409
1437 1437 1436 1435 1434 1433 1432 1431 1430 1428 1427 1426 1425 1425 1424 1423 1422 1422 1421 1420 1419 1418 1418 1417 1416 1415 1414 1414 1414 1413 1412 1411 1411 1410 1409 1408 1408 1408 1408 1407 1405 1405 1404
1434 1434 1433 1432 1431 1430 1429 1428 1427 1426 1424 1423 1423 1422 1421 1421 1420 1419 1418 1418 1417 1415 1415 1414 1413 1412 1411 1411 1411 1410 1409 1408 1407 1406 1406 1405 1405 1405 1405 1404 1402 1401 1401
1432 1431 1430 1429 1428 1428 1426 1425 1424 1423 1422 1421 1421 1420 1419 1418 1417 1417 1416 1415 1414 1413 1412 1411 1410 1409 1409 1408 1408 1407 1406 1404 1403 1403 1402 1402 1402 1402 1401 1401 1399 1398 1397
1429 1428 1427 1426 1426 1425 1424 1423 1422 1421 1420 1419 1418 1418 1417 1416 1416 1415 1414 1413 1412 1411 1410 1409 1408 1407 1406 1406 1405 1405 1403 1402 1401 1400 1399 1399 1399 1398 1398 1398 1397 1396 1396
1426 1425 1424 1424 1423 1422 1421 1420 1419 1418 1417 1417 1416 1416 1415 1414 1414 1413 1412 1411 1410 1409 1407 1406 1405 1405 1404 1403 1402 1402 1401 1400 1399 1397 1397 1396 1396 1395 1395 1395 1394 1393 1393
1423 1422 1422 1421 1421 1420 1419 1417 1417 1416 1415 1414 1414 1413 1413 1413 1412 1411 1410 1409 1408 1407 1405 1404 1403 1402 1401 1401 1400 1399 1398 1397 1396 1395 1394 1394 1393 1393 1392 1391 1391 1391 1390
1420 1420 1419 1418 1418 1417 1416 1415 1414 1413 1413 1412 1412 1412 1411 1411 1410 1409 1408 1407 1406 1405 1404 1403 1401 1400 1399 1399 1398 1397 1396 1395 1394 1393 1392 1391 1390 1390 1389 1389 1389 1388 1388
1417 1417 1416 1416 1415 1415 1414 1413 1412 1411 1410 1410 1410 1410 1409 1409 1408 1407 1407 1406 1405 1404 1403 1401 1400 1399 1397 1397 1396 1395 1394 1393 1392 1391 1389 1389 1388 1387 1387 1387 1386 1386 1386
1414 1414 1414 1413 1413 1412 1412 1411 1410 1410 1409 1408 1408 1408 1408 1407 1407 1406 1405 1404 1403 1402 1401 1400 1399 1397 1397 1395 1394 1393 1392 1391 1390 1389 1387 1386 1386 1385 1385 1385 1385 1385 1385